Stations météo

Publicité
Cambridge (NIAB), Grande-Bretagne (99123): Température de l'air & dewpoint: 12.02.2020 18:00:00 - 18.02.2020 18:00:00 (GMT)Cambridge (NIAB), Grande-Bretagne (99123): Quantités de précipitations: 12.02.2020 18:00:00 - 18.02.2020 18:00:00 (GMT)
Date & Time tt [°C] td [°C] rr [mm]
18.02.2020 18:00:00 - - -
18.02.2020 17:00:00 7,9 3,9 0,0
18.02.2020 16:00:00 8,4 3,8 0,0
18.02.2020 15:00:00 9,2 3,8 0,0
18.02.2020 14:00:00 8,8 3,9 0,0
18.02.2020 13:00:00 9,0 4,0 0,0
18.02.2020 12:00:00 8,2 4,1 0,0
18.02.2020 11:00:00 7,5 3,5 0,0
18.02.2020 10:00:00 6,2 2,8 -
18.02.2020 09:00:00 5,0 2,6 0,0
18.02.2020 08:00:00 4,0 1,8 -
18.02.2020 07:00:00 3,7 1,7 0,0
18.02.2020 06:00:00 3,5 1,6 -
18.02.2020 05:00:00 3,8 1,6 -
18.02.2020 04:00:00 3,6 1,3 0,0
18.02.2020 03:00:00 4,5 1,3 -
18.02.2020 02:00:00 4,7 1,0 -
18.02.2020 01:00:00 4,9 0,3 0,0
18.02.2020 00:00:00 4,8 0,7 -
17.02.2020 23:00:00 5,0 1,6 0,0
17.02.2020 22:00:00 5,4 2,5 -
17.02.2020 21:00:00 6,1 3,0 0,0
17.02.2020 20:00:00 6,5 4,0 0,2
17.02.2020 19:00:00 6,8 3,6 0,0
17.02.2020 18:00:00 7,3 3,0 0,0
17.02.2020 17:00:00 8,9 3,2 0,0
17.02.2020 16:00:00 10,0 3,6 0,0
17.02.2020 15:00:00 10,3 4,2 0,0
17.02.2020 14:00:00 9,6 4,0 0,0
17.02.2020 13:00:00 9,5 4,1 0,0
17.02.2020 12:00:00 8,4 3,9 0,0
17.02.2020 11:00:00 8,1 2,7 0,0
17.02.2020 10:00:00 7,1 1,6 0,0
17.02.2020 09:00:00 6,7 1,3 0,0
17.02.2020 08:00:00 6,4 2,3 0,0
17.02.2020 07:00:00 6,5 1,9 0,0
17.02.2020 06:00:00 5,6 1,4 0,0
17.02.2020 05:00:00 5,7 0,4 0,0
17.02.2020 04:00:00 5,6 0,2 0,0
17.02.2020 03:00:00 5,3 0,4 0,0
17.02.2020 02:00:00 5,3 0,8 0,0
17.02.2020 01:00:00 4,9 0,9 0,0
17.02.2020 00:00:00 4,9 1,0 0,0
16.02.2020 23:00:00 5,3 1,1 0,0
16.02.2020 22:00:00 4,7 1,4 0,0
16.02.2020 21:00:00 5,5 2,5 0,0
16.02.2020 20:00:00 6,8 3,0 0,0
16.02.2020 19:00:00 6,9 3,2 0,0
16.02.2020 18:00:00 7,0 3,2 0,0
16.02.2020 17:00:00 7,5 3,8 0,0
16.02.2020 16:00:00 7,6 4,4 0,0
16.02.2020 15:00:00 7,0 4,7 0,6
16.02.2020 14:00:00 7,8 6,0 1,4
16.02.2020 13:00:00 8,1 6,3 1,2
16.02.2020 12:00:00 9,1 6,3 0,4
16.02.2020 11:00:00 10,5 7,4 0,0
16.02.2020 10:00:00 9,6 7,8 0,0
16.02.2020 09:00:00 9,7 7,9 0,2
16.02.2020 08:00:00 10,0 8,2 3,2
16.02.2020 07:00:00 12,9 10,8 0,2
16.02.2020 06:00:00 12,8 11,1 0,2
16.02.2020 05:00:00 12,8 11,0 0,4
16.02.2020 04:00:00 12,4 10,9 0,4
16.02.2020 03:00:00 13,3 10,6 0,0
16.02.2020 02:00:00 13,2 10,7 0,0
16.02.2020 01:00:00 13,3 10,3 0,0
16.02.2020 00:00:00 12,7 10,5 0,0
15.02.2020 23:00:00 12,1 10,5 0,0
15.02.2020 22:00:00 12,5 10,1 0,0
15.02.2020 21:00:00 12,6 10,0 0,0
15.02.2020 20:00:00 12,2 9,8 0,0
15.02.2020 19:00:00 11,8 9,5 0,0
15.02.2020 18:00:00 11,9 9,6 0,0
15.02.2020 17:00:00 11,6 9,5 0,2
15.02.2020 16:00:00 11,3 9,7 0,8
15.02.2020 15:00:00 11,7 9,4 0,0
15.02.2020 14:00:00 11,7 9,5 0,4
15.02.2020 13:00:00 12,0 9,1 0,0
15.02.2020 12:00:00 12,2 8,8 0,0
15.02.2020 11:00:00 12,3 9,2 0,0
15.02.2020 10:00:00 11,5 9,6 0,0
15.02.2020 09:00:00 11,3 9,7 0,0
15.02.2020 08:00:00 10,7 9,6 0,0
15.02.2020 07:00:00 10,7 9,4 0,0
15.02.2020 06:00:00 10,4 9,3 0,0
15.02.2020 05:00:00 10,0 9,2 0,0
15.02.2020 04:00:00 9,8 9,1 0,0
15.02.2020 03:00:00 9,7 8,8 0,0
15.02.2020 02:00:00 9,3 8,6 0,6
15.02.2020 01:00:00 9,3 8,7 0,4
15.02.2020 00:00:00 9,3 8,5 0,0
14.02.2020 23:00:00 9,2 8,4 0,0
14.02.2020 22:00:00 9,1 8,2 0,0
14.02.2020 21:00:00 9,1 7,8 0,0
14.02.2020 20:00:00 9,3 7,8 0,0
14.02.2020 19:00:00 9,5 7,8 0,0
14.02.2020 18:00:00 9,6 7,3 0,0
14.02.2020 17:00:00 10,1 6,2 0,0
14.02.2020 16:00:00 10,5 5,8 0,0
14.02.2020 15:00:00 10,6 5,5 0,0
14.02.2020 14:00:00 10,0 5,8 0,0
14.02.2020 13:00:00 9,4 5,6 0,0
14.02.2020 12:00:00 8,9 5,1 0,0
14.02.2020 11:00:00 7,7 4,2 0,0
14.02.2020 10:00:00 6,0 3,4 0,0
14.02.2020 09:00:00 3,0 2,6 0,0
14.02.2020 08:00:00 1,0 0,7 0,0
14.02.2020 07:00:00 1,0 0,7 0,0
14.02.2020 06:00:00 1,0 0,6 0,0
14.02.2020 05:00:00 1,0 0,0 0,0
14.02.2020 04:00:00 2,4 1,3 0,0
14.02.2020 03:00:00 3,5 1,5 0,0
14.02.2020 02:00:00 4,7 2,1 0,0
14.02.2020 01:00:00 4,8 2,2 0,0
14.02.2020 00:00:00 3,4 1,3 0,0
13.02.2020 23:00:00 4,3 1,5 0,0
13.02.2020 22:00:00 5,5 2,5 0,0
13.02.2020 21:00:00 6,0 2,6 0,0
13.02.2020 20:00:00 6,3 3,1 0,0
13.02.2020 19:00:00 6,8 3,6 0,0
13.02.2020 18:00:00 6,4 4,0 0,0
13.02.2020 17:00:00 7,2 3,8 0,0
13.02.2020 16:00:00 8,2 4,6 0,0
13.02.2020 15:00:00 8,8 4,4 0,0
13.02.2020 14:00:00 9,3 4,6 0,0
13.02.2020 13:00:00 9,3 4,4 0,0
13.02.2020 12:00:00 8,2 5,3 0,0
13.02.2020 11:00:00 7,6 5,3 0,0
13.02.2020 10:00:00 6,4 4,4 0,0
13.02.2020 09:00:00 5,9 3,9 0,0
13.02.2020 08:00:00 5,6 3,9 0,0
13.02.2020 07:00:00 5,4 4,3 0,0
13.02.2020 06:00:00 4,7 3,4 1,0
13.02.2020 05:00:00 5,3 3,6 0,0
13.02.2020 04:00:00 5,8 4,4 0,8
13.02.2020 03:00:00 5,5 4,5 0,2
13.02.2020 02:00:00 4,9 4,1 0,6
13.02.2020 01:00:00 4,8 3,6 0,0
13.02.2020 00:00:00 4,9 2,9 0,0
12.02.2020 23:00:00 4,9 2,4 0,0
12.02.2020 22:00:00 4,4 1,3 0,0
12.02.2020 21:00:00 3,6 0,8 0,0
12.02.2020 20:00:00 2,7 -0,4 0,0
12.02.2020 19:00:00 3,1 -0,7 0,0
12.02.2020 18:00:00 2,5 -1,7 0,0

tt = Température de l'air
td = dewpoint
rr = Quantités de précipitations

stations d'obs. à proximité